Hourly Data Report for July 27, 2021

PRINCE RUPERT
BRITISH COLUMBIA
Current Station Operator: NAVCAN

54°17'10.000" N
130°26'41.000" W
35.40 m
1066482
71022
YPR

Download Data

Hourly Data (July 2021)
Hourly Data Report for July 27, 2021
TIME
LST
Temp Definition
°C
Dew Point Definition
°C
Rel Hum Definition
%
Precip. Amount Definition
mm

Wind Dir Definition
10's deg

Wind Spd Definition
km/h
Visibility Definition
km
Stn Press Definition
kPa
Hmdx Definition


Wind Chill Definition


Weather Definition


00:00 12.7 11.8 94 0.0 9 5 16.1 101.42     LegendNANA
01:00 12.4 11.5 94 0.0 13 5 16.1 101.44     LegendNANA
02:00 12.3 11.2 93 0.0 13 5 16.1 101.47     LegendNANA
03:00 12.5 11.4 93 0.0 13 5 16.1 101.49     LegendNANA
04:00 12.4 11.3 93 0.0 13 4 16.1 101.49     LegendNANA
05:00 12.2 11.3 94 0.0 7 8 16.1 101.49     LegendNANA
06:00 12.4 11.5 94 0.0 9 8 16.1 101.52     LegendNANA
07:00 13.7 11.8 88 0.0 14 4 16.1 101.55     LegendNANA
08:00 13.6 12.0 90 0.0 18 8 16.1 101.60     LegendNANA
09:00 14.8 12.1 84 0.0 19 9 16.1 101.63     LegendNANA
10:00 15.2 12.6 84 0.0 25 8 16.1 101.65     LegendNANA
11:00 16.0 10.9 71 0.0 LegendMM 4 16.1 101.67     LegendNANA
12:00 16.6 10.8 69 0.0 LegendMM 9 16.1 101.70     LegendNANA
13:00 16.9 11.0 68 0.0 32 11 16.1 101.69     LegendNANA
14:00 16.8 11.0 68 0.0 30 11 16.1 101.70     LegendNANA
15:00 16.7 11.5 71 0.0 30 13 16.1 101.70     LegendNANA
16:00 16.4 12.2 76 0.0 27 11 16.1 101.70     LegendNANA
17:00 16.6 12.1 74 0.0 31 9 16.1 101.69     LegendNANA
18:00 16.2 11.7 74 0.0 33 8 16.1 101.67     LegendNANA
19:00 16.0 11.3 74 0.0 30 9 16.1 101.65     LegendNANA
20:00 14.2 10.3 77 0.0 31 8 16.1 101.65     LegendNANA
21:00 13.1 11.4 89 0.0 33 5 16.1 101.67     LegendNANA
22:00 12.1 11.2 94 0.0 LegendMM 4 16.1 101.67     LegendNANA
23:00 12.4 10.8 90 0.0 5 5 16.1 101.68     LegendNANA

Notes on Data Quality.

Legend

  • E = Estimated
  • M = Missing
  • NA = Not Available*
  • [empty] = Indicates an unobserved value
Date modified: